Moriarty, NM

5:56 PM MDT on April 27, 2017 (GMT -0600)
Moriarty

Weather History for K0E0 - March, 2013

Change the Weather History Date:

Thursday, March 21, 2013

  Actual Average (KABQ) Record (KABQ)
Temperature  
Mean Temperature 54 °F -  
Max Temperature 69 °F 65 °F 81 °F (1997)
Min Temperature 39 °F 33 °F 19 °F (1903)
Degree Days  
Heating Degree Days 11    
Growing Degree Days 4 (Base 50)    
Moisture  
Dew Point 17 °F    
Average Humidity 27    
Maximum Humidity 50    
Minimum Humidity 8    
Precipitation  
Precipitation 0.00 in - - ()
Sea Level Pressure  
Sea Level Pressure 29.81 in    
Wind  
Wind Speed 13 mph (WNW)    
Max Wind Speed 33 mph    
Max Gust Speed 45 mph    
Visibility 10 miles    
Events      
Averages and records for this station are not official NWS values.
T = Trace of Precipitation, MM = Missing Value Source: NWS Daily Summary

Daily Weather History Graph

Daily Weather History Graph

Search for Another Location

Airport or City:

Trip Planner

Search our weather history database for the weather conditions in past years. The results will help you decide how hot, cold, wet, or windy it might be!

Date:

Astronomy

Mar. 21, 2013 Rise Set
Actual Time 7:05 AM MDT 7:16 PM MDT
Civil Twilight 6:40 AM MDT 7:42 PM MDT
Nautical Twilight 6:11 AM MDT 8:11 PM MDT
Astronomical Twilight 5:41 AM MDT 8:41 PM MDT
Moon 2:00 PM MDT (3/21) 3:18 AM MDT (3/21)
Length of Visible Light 13h 01m
Length of Day
12h 10m
Waxing Gibbous, 69% of the Moon is Illuminated
Mar 21
Waxing Gibbous
Mar 27
Full
Apr 2
Last Quarter
Apr 10
New
Apr 18
First Quarter

Hourly Weather History & Observations

Time (MDT) Temp. Windchill Dew Point Humidity Pressure Visibility Wind Dir Wind Speed Gust Speed Precip Events Conditions
12:15 AM 43.0 °F 40.3 °F 19.0 °F 38% 29.93 in 10.0 mi NNW 4.6 mph - N/A   Clear
12:35 AM 41.2 °F 37.3 °F 19.2 °F 41% 29.92 in 10.0 mi NNW 5.8 mph - N/A   Clear
12:55 AM 42.8 °F 39.3 °F 19.9 °F 40% 29.92 in 10.0 mi NW 5.8 mph - N/A   Clear
1:15 AM 44.8 °F 43.3 °F 21.0 °F 39% 29.92 in 10.0 mi WNW 3.5 mph - N/A   Clear
1:35 AM 43.3 °F 40.7 °F 21.6 °F 42% 29.91 in 10.0 mi West 4.6 mph - N/A   Clear
2:15 AM 42.6 °F 37.8 °F 23.5 °F 47% 29.90 in 10.0 mi WSW 8.1 mph - N/A   Clear
2:35 AM 44.1 °F 38.6 °F 23.9 °F 45% 29.89 in 10.0 mi WSW 10.4 mph - N/A   Clear
2:55 AM 45.9 °F 42.9 °F 25.2 °F 44% 29.89 in 10.0 mi West 5.8 mph - N/A   Clear
3:15 AM 46.8 °F - 25.2 °F 43% 29.87 in 10.0 mi West 6.9 mph - N/A   Clear
3:35 AM 47.8 °F - 25.7 °F 42% 29.86 in 10.0 mi West 3.5 mph - N/A   Clear
3:55 AM 48.4 °F - 25.9 °F 42% 29.86 in 10.0 mi West 4.6 mph - N/A   Clear
4:15 AM 46.8 °F - 25.5 °F 43% 29.84 in 10.0 mi West 3.5 mph - N/A   Clear
4:35 AM 43.7 °F 40.3 °F 24.8 °F 47% 29.84 in 10.0 mi SW 5.8 mph - N/A   Clear
4:55 AM 43.3 °F 38.6 °F 25.7 °F 50% 29.84 in 10.0 mi West 8.1 mph - N/A   Clear
5:15 AM 47.7 °F - 25.7 °F 42% 29.83 in 10.0 mi West 12.7 mph - N/A   Clear
5:35 AM 48.7 °F - 24.8 °F 39% 29.83 in 10.0 mi West 17.3 mph - N/A   Scattered Clouds
5:55 AM 49.5 °F - 23.9 °F 37% 29.84 in 10.0 mi West 16.1 mph 20.7 mph N/A   Clear
6:15 AM 49.3 °F - 23.5 °F 36% 29.84 in 10.0 mi West 13.8 mph - N/A   Scattered Clouds
6:35 AM 48.0 °F - 23.9 °F 39% 29.84 in 10.0 mi West 12.7 mph - N/A   Clear
6:55 AM 47.3 °F - 24.1 °F 40% 29.84 in 10.0 mi West 12.7 mph - N/A   Clear
7:15 AM 47.3 °F - 23.9 °F 40% 29.84 in 10.0 mi West 11.5 mph - N/A   Clear
7:35 AM 48.2 °F - 24.3 °F 39% 29.84 in 10.0 mi West 13.8 mph - N/A   Clear
7:55 AM 48.4 °F - 24.4 °F 39% 29.84 in 10.0 mi West 13.8 mph - N/A   Clear
8:15 AM 50.5 °F - 24.8 °F 37% 29.85 in 10.0 mi West 16.1 mph - N/A   Clear
8:35 AM 52.9 °F - 25.5 °F 35% 29.85 in 10.0 mi West 17.3 mph 21.9 mph N/A   Mostly Cloudy
8:55 AM 54.5 °F - 26.1 °F 33% 29.84 in 10.0 mi West 17.3 mph - N/A   Mostly Cloudy
9:15 AM 54.9 °F - 26.4 °F 33% 29.84 in 10.0 mi West 19.6 mph 24.2 mph N/A   Scattered Clouds
9:35 AM 55.0 °F - 27.3 °F 34% 29.84 in 10.0 mi WNW 20.7 mph 28.8 mph N/A   Mostly Cloudy
9:55 AM 55.8 °F - 28.4 °F 35% 29.83 in 10.0 mi WNW 18.4 mph 31.1 mph N/A   Scattered Clouds
10:15 AM 56.3 °F - 28.8 °F 35% 29.83 in 10.0 mi WNW 23.0 mph 29.9 mph N/A   Scattered Clouds
10:35 AM 57.0 °F - 29.1 °F 35% 29.82 in 10.0 mi WNW 24.2 mph 32.2 mph N/A   Clear
10:55 AM 57.7 °F - 29.1 °F 34% 29.82 in 10.0 mi WNW 27.6 mph 34.5 mph N/A   Clear
11:15 AM 59.2 °F - 29.1 °F 32% 29.82 in 10.0 mi West 20.7 mph 26.5 mph N/A   Clear
11:35 AM 59.9 °F - 28.2 °F 30% 29.81 in 10.0 mi WNW 23.0 mph 33.4 mph N/A   Scattered Clouds
11:55 AM 59.5 °F - 28.0 °F 30% 29.81 in 10.0 mi WNW 24.2 mph 31.1 mph N/A   Mostly Cloudy
12:15 PM 58.8 °F - 27.7 °F 31% 29.80 in 10.0 mi WNW 19.6 mph 27.6 mph N/A   Scattered Clouds
12:35 PM 61.9 °F - 26.1 °F 26% 29.78 in 10.0 mi West 29.9 mph 41.4 mph N/A   Scattered Clouds
12:55 PM 63.0 °F - 25.3 °F 24% 29.77 in 10.0 mi West 27.6 mph 38.0 mph N/A   Clear
1:15 PM 64.6 °F - 23.0 °F 21% 29.76 in 10.0 mi West 27.6 mph 39.1 mph N/A   Clear
1:35 PM 65.3 °F - 19.9 °F 18% 29.75 in 10.0 mi West 28.8 mph 42.6 mph N/A   Clear
1:55 PM 66.4 °F - 19.4 °F 17% 29.73 in 10.0 mi WNW 23.0 mph 35.7 mph N/A   Clear
2:15 PM 67.5 °F - 13.6 °F 13% 29.73 in 10.0 mi WNW 31.1 mph 42.6 mph N/A   Clear
2:35 PM 67.1 °F - 12.9 °F 12% 29.72 in 10.0 mi West 31.1 mph 39.1 mph N/A   Clear
2:55 PM 68.0 °F - 11.7 °F 11% 29.71 in 10.0 mi West 27.6 mph 42.6 mph N/A   Clear
3:15 PM 68.4 °F - 11.3 °F 11% 29.71 in 10.0 mi West 27.6 mph 41.4 mph N/A   Clear
3:35 PM 68.5 °F - 10.4 °F 10% 29.70 in 10.0 mi West 32.2 mph 44.9 mph N/A   Clear
3:55 PM 69.3 °F - 8.6 °F 9% 29.70 in 10.0 mi West 28.8 mph 34.5 mph N/A   Clear
4:15 PM 68.5 °F - 4.1 °F 8% 29.70 in 10.0 mi NW 31.1 mph 41.4 mph N/A   Clear
4:35 PM 68.4 °F - 5.2 °F 8% 29.70 in 10.0 mi West 27.6 mph 35.7 mph N/A   Clear
4:55 PM 68.5 °F - 5.4 °F 8% 29.71 in 10.0 mi West 28.8 mph 35.7 mph N/A   Clear
5:15 PM 67.1 °F - 3.4 °F 8% 29.71 in 10.0 mi WNW 33.4 mph 42.6 mph N/A   Clear
5:35 PM 65.8 °F - 2.8 °F 8% 29.72 in 10.0 mi WNW 29.9 mph 42.6 mph N/A   Clear
5:55 PM 65.3 °F - 3.9 °F 9% 29.72 in 10.0 mi WNW 17.3 mph 31.1 mph N/A   Clear
6:15 PM 64.4 °F - 5.0 °F 10% 29.73 in 10.0 mi WNW 23.0 mph 29.9 mph N/A   Clear
6:35 PM 62.8 °F - 4.3 °F 10% 29.74 in 10.0 mi WNW 19.6 mph 25.3 mph N/A   Clear
6:55 PM 60.4 °F - 4.8 °F 11% 29.75 in 10.0 mi NW 17.3 mph - N/A   Clear
7:15 PM 58.3 °F - 4.6 °F 12% 29.76 in 10.0 mi NW 21.9 mph 26.5 mph N/A   Clear
7:35 PM 56.1 °F - 5.0 °F 13% 29.77 in 10.0 mi NW 15.0 mph - N/A   Clear
7:55 PM 53.4 °F - 4.5 °F 14% 29.78 in 10.0 mi NNW 10.4 mph - N/A   Clear
8:15 PM 51.6 °F - 5.0 °F 15% 29.78 in 10.0 mi NNW 10.4 mph - N/A   Clear
8:35 PM 48.6 °F - 4.5 °F 17% 29.79 in 10.0 mi NW 8.1 mph - N/A   Clear
8:55 PM 45.0 °F 41.8 °F 4.5 °F 19% 29.80 in 10.0 mi NNW 5.8 mph - N/A   Clear
9:15 PM 45.3 °F 42.3 °F 5.0 °F 19% 29.81 in 10.0 mi NW 5.8 mph - N/A   Clear
9:35 PM 44.2 °F - 5.2 °F 20% 29.81 in 10.0 mi Calm Calm - N/A   Clear
9:55 PM 44.2 °F - 5.5 °F 20% 29.82 in 10.0 mi Calm Calm - N/A   Clear
10:15 PM 43.0 °F 41.3 °F 5.9 °F 22% 29.83 in 10.0 mi SSE 3.5 mph - N/A   Clear
10:35 PM 40.1 °F 38.0 °F 6.1 °F 24% 29.83 in 10.0 mi ENE 3.5 mph - N/A   Clear
10:55 PM 41.0 °F 37.1 °F 7.3 °F 25% 29.83 in 10.0 mi ENE 5.8 mph - N/A   Clear
11:15 PM 39.6 °F 35.4 °F 6.8 °F 26% 29.83 in 10.0 mi East 5.8 mph - N/A   Clear
11:35 PM 40.8 °F 36.9 °F 7.3 °F 25% 29.83 in 10.0 mi East 5.8 mph - N/A   Clear
11:55 PM 42.1 °F - 7.7 °F 24% 29.83 in 10.0 mi Calm Calm - N/A   Clear